Overview Statistics Trail Chart Weather Telemetry Raw packets
 

This is the latest recevied weather packets stored in our database for station/object PA3DZX-13. If no packets are shown the sender has not sent any weather packets the latest 10 day(s).

<< 31 32 33 34 35 36 37 >>
Time Temp. Humidity Pressure Rain* Wind** Luminosity Snow
1787882725 18.89° C 94% 1006.2 hPa 0 mm - - -
1787881823 18.89° C 93% 1006.5 hPa 0 mm - - -
1787880923 17.78° C 94% 1007.5 hPa 0 mm - - -
1787880024 18.89° C 94% 1008 hPa 0 mm - - -
1787879123 18.89° C 93% 1008.2 hPa 0 mm - - -
1787878223 18.89° C 93% 1008.4 hPa 0.76 mm - - -
1787877323 18.89° C 92% 1008 hPa 0 mm - - -
1787876423 18.89° C 93% 1007.1 hPa 0.25 mm - - -
1787875523 18.89° C 94% 1007.3 hPa 0.76 mm - - -
1787874622 18.89° C 94% 1007.8 hPa 3.3 mm - - -
1787873723 18.89° C 93% 1010.4 hPa 39.62 mm - - -
1787872822 20° C 90% 1008.4 hPa 0 mm - - -
1787871922 20° C 92% 1006.9 hPa 0 mm - - -
1787871022 20° C 90% 1007.3 hPa 0 mm - - -
1787870122 20.56° C 88% 1007.3 hPa 0 mm - - -
1787869222 21.67° C 78% 1008.3 hPa 3.81 mm - - -
1787868322 22.78° C 69% 1008.8 hPa 0 mm - - -
1787867422 23.89° C 67% 1008.2 hPa 0 mm - - -
1787866522 23.89° C 65% 1007.8 hPa 0 mm - - -
1787865621 23.89° C 64% 1007.9 hPa 0 mm - - -
1787864721 20.56° C 80% 1008 hPa 0 mm - - -
1787863820 20.56° C 80% 1008 hPa 0 mm - - -
1787862920 20.56° C 82% 1008 hPa 0 mm - - -
1787862020 20.56° C 80% 1008.3 hPa 0 mm - - -
1787861123 21.67° C 78% 1008.8 hPa 0 mm - - -

* Rain latest hour (hover to see other rain measurements)
** Current wind speed in m/s (hover to see current wind gust speed)